This is the latest recevied weather packets stored in our database for station/object F5LKO-13. If no packets are shown the sender has not sent any weather packets the latest 10 day(s).
| Time | Temp. | Humidity | Pressure | Rain* | Wind** | Luminosity | Snow |
|---|---|---|---|---|---|---|---|
| 1777981381 | 12.22° C | 99% | 1015.5 hPa | 1.02 mm | - | 2 W/m² | - |
| 1777981066 | 12.78° C | 99% | 1015.6 hPa | 1.02 mm | - | 1 W/m² | - |
| 1777980760 | 12.78° C | 99% | 1015.6 hPa | 0.51 mm | - | 0 W/m² | - |
| 1777980454 | 12.78° C | 99% | 1015.6 hPa | 0.51 mm | - | 0 W/m² | - |
| 1777980148 | 12.78° C | 99% | 1015.8 hPa | 0 mm | - | 0 W/m² | - |
| 1777979842 | 12.78° C | 99% | 1015.8 hPa | 0 mm | - | 0 W/m² | - |
| 1777979545 | 12.78° C | 99% | 1015.8 hPa | 0 mm | - | 1 W/m² | - |
| 1777979230 | 12.78° C | 99% | 1015.8 hPa | 0 mm | - | 1 W/m² | - |
| 1777978924 | 12.78° C | 99% | 1015.8 hPa | 0 mm | - | 1 W/m² | - |
| 1777978617 | 12.78° C | 99% | 1016 hPa | 4.06 mm | - | 1 W/m² | - |
| 1777978311 | 12.78° C | 99% | 1015.9 hPa | 3.3 mm | - | 1 W/m² | - |
| 1777978005 | 12.78° C | 99% | 1015.9 hPa | 3.3 mm | - | 1 W/m² | - |
| 1777977708 | 12.78° C | 99% | 1016 hPa | 2.79 mm | - | 1 W/m² | - |
| 1777977393 | 12.22° C | 99% | 1016 hPa | 2.79 mm | - | 2 W/m² | - |
| 1777977087 | 12.22° C | 99% | 1016 hPa | 2.29 mm | - | 3 W/m² | - |
| 1777976781 | 12.22° C | 99% | 1016.1 hPa | 1.52 mm | - | 3 W/m² | - |
| 1777976475 | 12.22° C | 99% | 1016 hPa | 1.52 mm | - | 2 W/m² | - |
| 1777976169 | 12.22° C | 99% | 1016 hPa | 1.02 mm | - | 1 W/m² | - |
| 1777975872 | 12.22° C | 99% | 1016 hPa | 0.51 mm | - | 1 W/m² | - |
| 1777975557 | 11.67° C | 99% | 1015.9 hPa | 0.51 mm | - | 0 W/m² | - |
| 1777975251 | 11.67° C | 99% | 1015.9 hPa | 0 mm | - | 1 W/m² | - |
| 1777974944 | 11.67° C | 99% | 1015.9 hPa | 6.35 mm | - | 1 W/m² | - |
| 1777974638 | 11.67° C | 99% | 1015.9 hPa | 5.59 mm | - | 0 W/m² | - |
| 1777974332 | 11.67° C | 99% | 1015.8 hPa | 5.59 mm | - | 0 W/m² | - |
| 1777974035 | 12.22° C | 99% | 1015.7 hPa | 5.08 mm | - | 0 W/m² | - |
* Rain latest hour (hover to see other rain measurements)
** Current wind speed in m/s (hover to see current wind gust speed)